Theta_e
311 310 310 309 309 308 308 307 307 307 307 307 307 307 307 307 308 308 309 309 310 311 311 312 312 312 312 313 313 314 314 314 315 314 316 319 319 319 318 318 318 317 317 317 320 330 340 338 337 341 343 345 346 347 347 350 352 351 356 358 356 355 353 350 349 341 339 347 349 348 350 353 353 352 352 352 352 353 352 352 351 350 350 348 346 344 344 344
312 312 312 311 310 310 309 309 308 308 308 308 308 307 307 307 307 307 308 308 309 310 311 311 312 312 312 313 313 313 314 314 315 315 318 320 320 319 319 318 318 318 317 318 320 327 337 339 340 343 344 345 348 348 347 349 352 354 355 356 356 356 353 348 345 342 338 344 349 349 350 351 353 352 352 354 353 352 352 352 351 351 350 350 348 344 343 344
313 313 313 313 312 312 311 311 310 309 309 309 308 308 308 308 308 308 307 308 309 310 311 311 311 312 312 312 312 313 313 314 315 318 320 321 322 322 322 320 318 318 318 318 322 325 332 338 341 344 345 346 351 351 349 350 354 354 353 355 356 351 349 346 344 345 341 342 347 348 350 351 351 351 352 353 352 351 352 352 351 351 351 350 349 345 344 344
313 313 313 313 313 313 313 312 312 311 310 310 309 309 309 309 309 308 308 308 308 309 310 311 311 312 312 312 312 312 313 314 317 320 323 324 324 323 324 323 319 317 318 319 323 325 330 338 342 344 347 348 352 354 352 353 355 355 354 356 354 347 348 346 344 345 341 342 348 349 350 351 350 352 351 351 353 352 351 351 351 351 351 350 349 346 344 343
313 314 314 314 314 314 314 314 313 313 312 311 311 310 310 310 310 309 309 308 308 308 309 310 310 311 312 311 312 312 312 315 320 324 325 324 322 319 320 323 321 317 318 320 322 324 330 339 343 345 348 349 351 353 353 354 354 353 354 355 353 350 350 347 344 344 339 343 348 349 349 351 350 351 350 351 354 353 350 350 347 347 349 349 347 346 344 343
313 313 314 314 314 314 314 314 314 314 313 313 312 312 311 311 310 310 310 310 309 309 309 309 310 310 311 311 311 312 313 316 322 324 323 321 322 319 317 321 322 318 318 319 321 326 333 341 344 346 347 348 349 350 352 353 353 352 351 351 352 352 350 347 344 342 342 344 347 348 349 350 350 351 350 350 351 349 345 347 348 346 345 345 345 345 345 344
313 313 313 313 313 313 314 314 314 314 314 313 313 313 312 312 311 311 310 310 310 310 310 309 310 310 310 310 310 312 313 316 321 321 319 319 322 319 317 323 322 319 317 318 322 327 334 341 344 346 347 349 349 348 349 350 351 351 349 346 347 347 345 345 343 341 342 345 347 347 349 350 350 351 350 349 348 347 346 348 350 349 346 346 345 345 345 345
312 312 312 312 312 312 313 313 313 313 314 314 314 314 313 313 312 312 311 311 311 310 310 310 310 310 310 310 310 311 312 317 320 319 318 319 322 319 318 323 321 318 317 318 324 326 331 341 345 346 348 349 349 347 348 349 349 348 348 347 345 345 344 344 343 341 341 342 345 346 349 350 350 350 349 349 348 347 348 349 350 349 349 348 346 346 347 347
312 312 312 312 311 312 312 312 312 313 313 314 314 314 314 314 313 312 312 311 311 310 311 311 310 310 310 309 310 311 314 319 320 318 319 320 323 320 317 321 319 317 318 319 324 325 331 339 343 347 348 347 348 346 346 349 349 347 346 346 344 344 343 343 342 341 340 340 342 345 348 349 349 350 350 349 348 348 349 350 350 350 350 349 347 348 347 347
311 311 311 311 311 311 311 311 312 312 313 314 314 314 314 314 314 313 312 312 311 311 311 311 310 310 309 309 311 313 317 320 319 318 321 320 323 321 318 319 318 318 319 321 325 325 329 332 336 343 344 341 342 343 343 345 347 345 343 344 343 343 342 342 341 340 339 338 339 343 347 348 347 350 352 349 348 349 349 350 350 350 350 349 349 349 348 346
309 309 309 309 310 310 310 310 311 311 313 314 314 314 314 314 314 313 313 312 312 311 311 311 311 310 309 310 311 314 317 320 320 320 322 320 322 322 319 320 321 322 323 323 324 325 327 325 327 339 342 338 337 337 339 340 341 341 340 338 336 335 334 334 334 333 333 335 338 340 345 345 344 348 350 348 348 349 350 351 351 350 350 350 350 349 349 347
308 308 308 308 308 309 309 309 309 310 312 314 315 314 314 314 313 313 313 312 312 311 311 311 311 310 309 309 311 315 317 318 319 320 322 320 319 320 320 320 322 324 325 324 324 323 325 322 325 335 337 335 335 334 335 336 334 335 333 330 329 328 327 327 327 327 329 335 336 338 342 343 343 345 346 347 349 349 350 351 351 351 350 350 351 350 350 349
308 307 307 307 307 308 308 308 309 310 312 313 314 314 314 313 312 312 312 312 312 311 312 311 311 310 309 309 312 316 316 317 318 320 322 320 319 319 320 320 321 323 324 324 324 323 323 323 325 330 331 332 335 334 335 334 332 334 330 327 328 327 327 327 326 327 330 333 336 339 340 342 343 341 344 348 350 350 351 351 351 351 351 351 351 351 351 350
307 307 307 307 308 308 308 309 309 310 311 312 313 314 313 311 312 313 314 314 313 312 311 311 311 309 308 310 314 315 315 316 317 319 321 321 320 320 320 320 321 322 323 323 323 323 323 325 325 326 328 331 332 332 333 332 329 332 330 327 327 325 327 328 326 328 331 333 336 339 337 339 341 339 344 349 350 351 351 351 351 351 351 351 352 351 351 351
308 308 308 308 308 308 309 309 309 310 311 312 312 313 311 312 315 317 317 318 318 316 314 312 311 309 309 312 313 315 316 316 316 319 320 320 320 320 322 322 322 322 323 323 323 323 323 324 325 325 325 326 328 329 330 331 329 329 329 329 327 323 326 329 326 327 330 333 335 337 335 337 338 338 345 350 350 351 350 351 352 351 352 351 352 352 351 352
307 308 308 308 309 309 309 310 310 310 311 311 312 312 311 314 318 318 319 319 319 318 315 312 310 309 312 314 314 316 317 317 317 318 318 319 320 321 323 323 324 323 323 323 323 323 323 324 324 324 323 325 328 328 328 329 330 331 329 328 327 324 325 328 327 325 327 334 335 334 337 343 342 340 347 351 349 351 350 351 351 351 352 351 351 352 351 352
306 306 306 307 307 308 309 310 310 311 312 311 311 311 312 315 318 319 320 318 318 319 315 314 313 312 314 316 316 317 317 319 318 318 318 319 320 320 320 321 324 324 323 323 323 323 324 324 325 326 325 326 328 329 325 324 328 331 327 324 325 324 324 325 328 326 326 335 339 335 336 345 350 346 348 351 349 350 350 350 351 351 351 352 352 351 352 352
304 304 304 305 305 306 307 308 310 311 312 311 310 312 313 315 317 318 320 319 318 319 318 318 318 316 317 318 317 318 319 320 321 321 321 320 320 319 318 320 324 324 323 324 324 324 325 325 327 329 328 326 328 327 323 323 330 330 326 324 324 324 323 324 327 327 328 335 339 339 336 340 350 349 348 351 350 349 350 350 350 351 351 351 351 351 351 352
303 303 303 303 304 304 305 306 308 310 311 311 310 312 314 314 315 318 321 320 316 317 320 321 320 319 319 318 317 319 320 320 321 322 323 323 322 321 319 319 322 323 324 326 326 324 325 326 326 328 328 327 326 324 323 328 331 330 328 326 324 323 324 325 326 326 326 331 336 340 337 338 350 352 349 350 350 349 349 350 350 350 351 351 351 351 351 351
302 303 303 303 303 303 304 304 306 309 310 310 311 313 313 312 315 316 316 317 315 315 317 318 318 319 320 319 318 319 319 320 321 322 324 325 325 323 320 319 321 324 325 327 326 324 325 327 326 326 327 327 326 325 326 329 329 329 327 325 323 322 322 324 326 326 325 328 335 342 340 338 347 351 349 349 350 350 349 349 350 350 350 350 351 351 351 351
302 302 302 302 303 303 304 303 305 309 309 309 311 311 309 308 311 312 310 313 315 315 315 316 316 317 318 319 318 319 318 319 320 321 324 325 326 324 320 319 323 324 326 327 325 323 326 327 326 326 327 328 328 327 327 328 328 327 327 325 323 322 322 323 324 327 327 328 334 340 339 338 345 350 349 349 350 350 349 349 350 350 350 350 351 350 351 351
301 302 301 302 302 303 304 302 305 309 308 308 311 309 307 306 307 308 307 310 313 314 315 315 315 314 316 317 317 317 317 318 319 320 323 325 326 325 321 320 322 324 325 325 325 324 324 326 327 326 327 329 329 328 327 327 327 325 325 323 322 323 324 325 324 325 326 326 330 333 332 334 342 348 349 349 350 350 349 349 350 350 350 350 351 350 350 351
301 301 301 301 302 302 303 302 306 309 307 309 310 308 306 306 305 307 309 310 312 313 315 315 315 315 316 317 317 316 316 317 318 319 321 323 324 324 321 319 320 323 324 325 327 325 322 324 326 325 326 328 328 327 326 326 325 324 324 321 321 323 323 324 326 326 326 326 330 333 333 339 349 351 350 348 348 350 348 349 349 350 350 350 350 350 350 351
301 301 301 301 301 302 302 303 306 307 306 309 310 307 306 306 306 308 310 312 312 313 315 316 316 315 316 317 316 316 316 316 317 319 320 322 323 322 321 320 320 323 324 325 326 325 324 323 323 324 326 327 326 326 326 326 325 324 324 322 322 324 323 323 326 327 327 326 329 331 331 344 356 353 353 349 347 349 348 348 349 349 350 350 349 350 350 350
301 301 301 301 301 302 302 302 304 304 305 309 310 307 307 306 306 308 310 313 315 314 315 315 315 315 316 315 315 316 316 316 317 319 320 321 324 323 321 320 320 322 323 324 324 325 325 323 321 324 325 325 325 326 326 325 325 324 325 324 324 324 324 324 324 325 324 323 329 328 323 338 356 351 350 350 348 349 348 347 348 348 349 349 350 350 350 350
300 300 300 301 301 301 302 302 303 303 304 308 308 307 307 307 308 310 311 314 317 317 315 316 316 316 316 315 314 315 317 318 318 319 319 320 324 324 322 320 320 322 322 323 324 324 325 322 322 324 324 325 325 324 324 325 324 322 325 327 325 325 324 323 323 322 322 323 331 331 323 332 345 345 347 350 350 350 348 347 347 347 348 348 349 349 349 350
300 300 300 301 301 301 302 302 302 302 306 307 307 307 308 307 308 310 313 317 322 320 317 316 316 316 316 315 315 317 319 320 318 319 319 320 324 324 324 322 320 321 321 322 322 322 324 323 322 324 323 324 324 323 324 325 323 322 327 329 327 326 325 324 323 322 324 325 327 330 326 324 327 336 345 348 351 351 349 349 347 346 347 348 348 348 349 349
300 300 300 300 301 301 301 302 303 304 307 307 306 307 308 307 309 311 315 321 326 323 318 316 315 315 315 315 316 317 318 318 318 319 318 320 323 323 323 322 321 322 321 321 321 322 324 324 323 323 323 323 322 323 325 324 323 324 326 327 327 326 324 324 323 322 325 323 318 323 327 322 323 338 345 344 350 352 350 350 347 346 346 346 348 348 348 349
300 300 301 300 301 301 301 303 305 306 308 307 306 307 308 308 311 313 317 322 324 321 318 317 315 314 314 314 316 316 315 315 316 317 318 321 323 322 323 321 320 322 322 321 322 323 324 323 322 322 322 323 322 324 325 324 324 325 325 325 325 323 324 326 324 321 323 321 317 320 323 319 322 337 343 340 346 350 349 350 347 345 346 346 347 347 348 348
300 300 300 301 301 301 301 303 305 306 308 308 307 307 308 310 313 316 320 322 321 319 317 317 316 313 314 314 314 314 314 315 315 316 318 321 323 322 322 321 321 323 322 322 323 324 324 322 323 323 323 323 323 324 323 323 324 324 325 325 323 324 325 328 330 324 319 318 318 319 322 320 319 329 338 340 344 347 346 348 347 344 345 345 346 347 347 347
300 300 300 301 301 302 303 304 305 306 308 309 308 307 308 312 316 320 322 321 318 319 318 317 315 314 315 315 314 314 314 314 315 316 318 319 321 322 322 322 322 322 321 321 322 323 323 323 324 324 323 322 323 323 321 322 323 323 326 324 323 326 324 321 324 322 317 316 318 320 323 321 316 323 336 340 340 343 344 346 346 345 344 344 345 346 347 347
300 300 300 301 302 303 304 305 305 306 308 310 309 308 310 312 314 317 319 318 317 318 317 316 315 315 315 315 315 316 315 315 315 316 316 318 320 322 322 323 322 321 320 320 320 321 322 324 325 324 324 323 323 323 321 321 322 323 325 322 321 323 321 318 319 320 318 318 321 323 322 319 319 327 338 339 337 338 340 342 343 343 343 343 344 344 345 346
300 300 300 302 303 304 305 305 305 305 308 310 309 310 312 313 315 315 315 316 316 315 315 315 315 315 315 316 317 316 315 316 316 316 317 317 320 322 322 323 323 322 323 320 318 320 320 321 323 322 324 324 323 323 321 321 322 321 322 321 320 320 318 319 321 320 319 320 322 324 321 320 323 329 335 334 335 336 335 338 340 341 342 343 342 343 344 345
300 300 301 303 304 304 304 304 304 304 308 310 310 311 313 313 316 317 315 315 315 314 315 316 316 316 316 317 317 315 315 316 316 316 317 318 319 321 323 322 322 324 326 322 318 319 319 320 323 322 322 324 324 323 323 324 323 320 322 321 320 321 320 320 320 319 321 324 323 320 320 322 323 329 335 330 328 333 334 336 337 338 340 341 342 342 342 344
301 300 301 304 304 303 304 304 303 303 307 311 312 312 313 312 315 317 316 316 315 314 315 315 315 316 318 319 316 315 316 316 316 315 317 320 319 320 322 322 322 324 324 321 319 320 318 320 324 322 321 324 324 324 324 325 322 319 322 321 319 321 321 320 322 323 321 320 320 320 324 331 329 330 337 331 326 332 333 335 336 336 338 338 339 341 340 342
301 300 301 304 304 302 303 304 303 303 306 311 312 311 311 311 313 315 316 315 314 315 316 316 317 317 319 320 316 316 317 316 316 316 316 319 320 321 322 322 322 322 323 322 322 321 317 320 324 320 321 324 324 325 323 323 324 321 320 319 320 322 320 319 320 322 318 316 320 324 325 330 329 329 337 334 330 332 333 335 336 334 336 337 336 338 339 340
301 300 301 303 303 302 303 303 303 303 306 311 313 312 311 310 312 315 315 314 314 315 316 318 319 317 317 319 317 315 317 317 317 316 316 318 318 317 319 322 321 320 321 321 322 323 320 321 324 321 321 322 321 324 324 323 324 322 318 319 321 321 321 321 319 318 317 317 320 322 322 324 323 328 341 339 333 334 334 336 337 334 335 335 336 337 337 339
301 300 301 302 302 302 303 303 303 303 308 313 314 315 315 312 313 314 314 314 315 316 316 317 318 316 315 318 317 314 316 318 317 317 318 319 317 315 315 318 318 317 318 317 320 324 321 319 322 322 322 322 320 322 323 321 322 321 321 322 323 320 319 320 320 318 318 318 319 321 324 324 322 328 340 337 334 338 335 334 337 336 336 335 336 337 336 337
301 300 301 301 302 302 303 304 303 305 311 314 314 315 315 314 314 314 314 314 315 316 316 316 316 316 316 317 316 314 315 317 317 317 318 318 317 315 313 314 316 316 317 318 319 323 322 319 321 322 322 321 321 321 320 320 321 321 321 321 322 322 318 318 321 320 320 319 319 319 319 320 324 333 340 339 341 341 336 336 337 335 335 335 335 337 337 337
301 302 302 301 302 303 304 306 307 310 314 315 314 314 313 313 314 313 313 313 314 315 316 316 315 315 316 316 314 314 315 316 316 317 317 316 315 315 312 312 314 315 316 319 321 322 322 320 320 322 321 319 320 321 320 320 321 320 320 318 318 320 319 318 319 319 320 320 320 318 315 318 330 339 337 338 343 342 337 337 336 334 333 335 336 337 337 337
302 302 302 302 303 304 307 308 308 311 313 312 312 310 310 312 313 311 310 311 312 313 314 314 314 314 314 314 314 314 316 317 317 317 317 315 315 315 313 312 312 314 318 324 326 325 325 322 318 318 318 317 320 322 321 322 322 320 320 319 318 318 318 318 318 318 319 319 322 321 314 318 333 338 336 337 342 343 340 336 335 333 331 334 336 336 337 337
302 302 302 302 304 305 307 308 307 307 308 308 308 307 308 310 311 310 309 309 310 311 312 312 313 313 313 313 314 314 316 318 318 318 317 314 313 313 312 311 312 315 321 325 325 324 325 325 319 318 320 320 322 323 321 322 322 322 322 321 320 321 318 317 317 319 318 318 324 324 316 323 338 337 334 341 343 339 334 332 333 332 330 333 335 335 337 337
302 302 301 302 305 305 306 307 306 306 306 307 307 307 307 309 309 309 309 308 309 310 310 311 311 311 312 313 314 313 315 317 317 317 316 314 312 311 311 311 312 316 321 324 325 323 324 326 321 320 324 323 323 324 323 323 322 320 322 322 320 320 319 318 322 324 321 317 320 321 316 323 343 342 336 338 337 330 327 328 330 330 330 333 334 334 337 336
302 302 302 302 304 305 306 306 305 305 306 307 306 306 307 307 308 308 308 308 309 308 309 310 310 310 310 312 313 313 314 317 317 314 313 314 313 311 311 311 312 316 320 323 324 321 323 328 323 319 320 319 319 322 321 322 322 321 323 323 320 321 320 319 323 324 320 318 320 319 316 325 347 349 337 334 334 333 330 326 326 328 329 331 333 334 335 336
302 302 303 302 303 305 305 305 305 305 305 306 305 305 306 306 307 308 308 308 308 308 308 309 309 309 310 311 313 312 312 314 315 313 311 312 313 311 311 311 312 315 319 321 320 318 323 329 324 319 320 318 318 322 323 322 322 323 324 323 322 323 320 319 320 318 319 324 321 317 321 335 348 343 334 332 334 335 332 325 324 328 329 330 332 333 334 335
302 302 302 302 303 304 304 304 305 304 305 305 305 305 305 305 306 307 308 308 308 308 308 308 309 309 309 310 312 312 311 311 312 313 312 311 311 311 311 311 311 315 319 318 316 318 325 330 326 322 323 322 321 324 325 323 322 321 322 322 322 323 321 320 318 316 322 328 321 320 329 334 333 331 332 335 334 334 336 330 325 327 329 330 331 332 334 335
302 302 302 303 303 304 304 304 304 304 304 304 305 305 305 305 306 307 307 307 307 307 307 308 308 308 308 309 311 311 311 311 311 312 311 310 311 310 310 311 311 314 317 314 314 320 325 327 326 324 324 323 322 322 321 321 322 321 322 323 322 322 323 321 317 319 329 326 317 326 336 327 326 334 336 337 338 338 341 335 325 323 326 328 329 330 333 333
302 302 303 303 303 304 304 303 303 304 304 304 305 305 305 305 305 306 306 306 306 307 308 308 308 307 307 308 310 312 312 311 312 312 310 311 311 310 310 311 311 312 313 312 313 317 321 324 325 321 320 320 319 319 320 320 321 322 322 322 321 321 322 320 319 323 329 322 317 329 337 327 330 339 337 338 341 338 336 332 325 323 326 327 327 328 331 332
302 302 303 303 303 303 303 303 304 304 304 304 305 305 305 305 305 305 305 305 306 306 307 307 307 307 307 307 309 311 311 311 312 312 310 311 311 310 311 312 312 311 311 311 312 314 319 326 325 319 318 319 318 319 321 320 321 321 322 321 320 321 321 320 322 324 326 324 323 331 336 331 329 332 333 333 329 325 325 325 324 325 326 327 327 326 328 330
302 302 303 303 303 303 303 303 304 304 303 304 305 305 304 305 305 305 305 305 305 306 306 306 306 306 307 307 309 309 309 310 311 311 310 310 310 310 312 313 312 310 310 311 313 314 317 323 322 318 319 320 319 321 321 319 320 320 321 322 321 320 320 320 321 323 323 325 325 328 332 332 331 334 334 326 320 321 325 324 323 325 326 326 328 327 328 329
302 302 302 302 303 303 304 304 304 304 303 304 305 305 303 304 304 304 304 305 306 306 306 306 306 306 306 306 307 308 308 308 309 309 309 309 309 310 311 311 310 310 311 312 313 315 317 320 321 320 321 322 321 320 319 318 320 321 322 324 323 321 321 320 321 324 324 324 325 324 324 327 332 335 333 325 323 327 329 324 321 322 325 327 328 329 330 329
302 302 302 302 303 303 304 304 303 303 303 304 304 304 303 304 304 304 304 306 306 306 305 306 306 306 306 306 306 307 308 308 308 309 309 309 309 309 309 310 309 310 311 312 313 316 318 319 320 320 323 324 321 317 318 320 322 322 321 323 324 323 322 322 322 325 325 324 324 323 322 326 331 333 332 329 329 330 329 323 321 322 324 326 328 330 330 329
Wind_Speed
16 16 15 15 15 15 15 15 15 15 15 15 16 16 17 17 17 18 18 17 17 17 16 15 15 15 15 16 17 17 17 19 18 20 25 18 11 15 17 16 14 12 14 16 16 21 26 26 27 26 27 24 15 17 19 11 7 8 3 2 4 3 3 4 3 3 1 2 8 16 21 16 11 15 15 11 10 16 18 8 13 14 4 12 16 21 33 31
17 17 17 16 16 17 16 17 17 17 16 16 16 16 16 17 17 17 18 18 18 17 17 16 15 15 15 16 16 16 18 18 19 24 23 13 12 17 17 18 19 17 15 19 20 24 30 30 31 28 27 22 12 14 16 12 11 8 2 2 5 4 4 4 4 3 5 2 10 15 20 18 16 19 18 11 9 16 12 7 14 12 8 15 18 27 34 32
18 18 18 17 18 18 18 18 18 18 18 18 18 18 17 17 17 17 18 18 18 18 18 16 16 16 15 15 16 16 17 18 22 22 12 6 10 13 15 19 21 20 18 19 20 23 28 30 31 28 26 18 11 14 13 12 11 9 5 2 6 6 7 8 9 10 10 7 13 11 15 13 17 22 18 11 10 14 10 11 16 15 20 22 25 34 34 34
18 18 18 18 18 18 18 18 18 19 19 19 19 19 19 19 18 18 18 18 18 19 19 17 16 16 15 15 14 14 15 16 17 11 3 5 7 7 14 18 21 22 18 17 15 16 23 28 30 28 22 12 10 14 12 13 11 8 9 5 5 4 5 8 6 8 7 13 16 12 12 8 17 20 17 18 11 6 12 22 25 25 29 29 33 37 36 38
20 20 20 20 20 19 19 19 19 19 19 20 20 20 20 20 20 20 18 18 18 18 19 18 16 16 16 15 14 12 11 9 4 4 4 3 4 5 12 17 21 24 21 19 15 14 22 29 29 24 17 8 9 10 10 19 14 6 11 12 9 6 5 7 3 5 2 14 13 11 11 11 18 16 20 24 12 10 22 32 32 33 34 34 39 39 38 40
21 21 21 22 22 22 21 21 20 20 20 20 20 21 21 21 21 20 20 19 19 19 19 18 17 15 16 15 14 11 5 4 5 6 3 7 6 5 8 16 22 25 24 22 18 18 24 30 28 20 13 6 9 9 7 19 19 7 8 12 14 13 11 12 6 4 0 12 13 12 13 17 17 12 22 28 18 16 25 32 32 33 34 36 42 43 42 42
20 21 21 22 23 23 23 23 23 22 22 22 21 21 21 22 21 21 21 20 20 19 19 19 17 15 15 14 14 11 10 16 10 4 11 12 8 4 5 16 23 26 26 23 21 23 27 31 27 20 12 5 7 10 7 13 18 12 8 8 12 15 17 21 14 6 4 9 16 18 14 17 18 12 19 28 23 13 16 28 30 32 35 37 43 44 44 44
20 20 21 22 22 23 23 24 24 24 24 24 23 22 22 22 22 22 21 20 20 19 20 19 17 16 14 14 13 10 17 23 12 8 12 12 9 3 4 15 24 27 26 25 23 24 27 30 28 19 10 6 6 7 9 9 10 12 10 8 10 15 20 25 21 13 10 13 17 18 14 20 25 16 16 28 25 9 11 26 28 31 36 39 44 44 43 43
20 21 21 22 22 23 23 24 24 25 25 25 25 24 23 23 22 22 21 21 20 19 20 19 17 16 14 14 11 9 18 21 13 10 8 8 9 3 5 15 25 27 25 23 22 22 26 29 29 20 7 7 8 4 8 7 5 9 12 13 12 17 22 24 23 19 13 14 18 15 12 23 26 14 12 26 23 10 14 27 29 34 37 40 43 43 43 42
21 21 22 22 23 23 23 23 24 24 25 26 26 26 25 24 23 23 22 21 20 19 19 19 18 16 14 14 8 6 15 13 7 8 4 9 11 6 9 17 22 24 23 21 20 22 25 24 28 24 7 6 8 7 9 7 5 8 13 15 16 18 23 22 20 23 15 11 19 18 12 21 23 11 8 17 20 15 20 28 31 36 38 41 42 42 43 43
22 22 23 23 23 24 23 24 24 24 25 25 26 26 26 25 24 23 22 21 20 19 19 19 17 16 15 14 12 11 14 12 10 7 3 11 12 8 12 18 21 22 22 21 21 21 22 20 22 23 9 7 7 5 9 9 9 13 13 12 14 15 19 19 16 20 12 6 19 22 13 14 15 10 10 16 22 21 26 31 33 36 38 39 40 41 42 42
23 24 25 25 25 25 25 24 24 24 25 25 26 26 26 25 24 22 22 20 19 18 19 18 16 16 15 17 24 23 15 13 12 8 8 11 10 8 10 15 19 20 20 20 20 19 20 19 20 21 11 6 5 2 5 7 6 11 10 7 10 8 12 14 11 13 6 4 16 17 4 5 11 12 12 19 25 26 30 33 33 36 37 37 38 39 41 41
24 25 26 26 27 27 26 26 25 25 25 26 26 26 25 24 22 22 20 19 17 16 17 17 16 16 13 17 26 24 17 15 14 13 11 7 7 8 10 15 17 18 19 17 17 16 19 19 21 25 18 7 4 2 5 5 4 7 5 4 5 6 8 8 5 7 3 4 16 17 1 6 14 14 14 22 29 30 30 32 33 34 34 35 36 37 39 41
25 26 27 27 28 28 28 27 27 26 26 26 26 25 24 22 20 19 18 16 14 14 15 16 15 15 15 20 24 20 17 19 21 20 16 12 10 9 12 16 17 18 19 18 16 14 17 21 21 21 19 13 7 5 6 6 4 4 3 2 2 2 6 5 2 2 3 5 23 19 3 8 13 13 19 27 33 33 30 30 33 34 33 35 36 36 38 40
26 26 27 28 28 29 29 29 29 28 27 27 25 23 22 18 16 15 14 13 11 10 12 13 15 13 13 21 23 19 17 19 23 23 20 19 16 13 14 17 19 19 18 18 18 14 14 20 20 14 12 15 12 6 4 4 3 1 1 4 2 2 5 8 4 4 3 6 21 17 4 6 8 12 24 31 34 34 30 30 32 33 34 35 36 37 36 38
27 27 28 28 28 29 29 30 30 29 28 27 24 21 18 15 12 11 9 8 6 5 6 9 13 12 7 12 15 14 15 16 17 19 22 23 20 16 14 15 17 18 18 17 17 16 11 11 15 14 10 9 6 3 1 3 3 1 2 4 4 3 4 7 5 5 6 4 10 11 5 3 5 12 25 31 34 33 28 29 32 34 35 35 36 37 36 36
29 29 29 29 29 29 29 30 30 29 28 26 21 17 15 13 10 8 6 6 6 2 2 4 8 8 9 10 9 9 10 11 11 13 19 23 23 21 18 16 16 18 18 17 16 14 10 7 8 9 8 5 3 5 3 6 6 2 1 3 4 4 3 4 6 3 3 3 6 10 9 6 4 10 25 31 34 31 26 28 32 33 34 35 35 36 36 36
31 31 30 30 30 29 29 29 29 28 26 23 18 15 14 11 9 11 10 8 8 2 1 5 8 2 9 12 10 7 4 5 8 11 14 19 23 24 22 20 18 18 15 11 11 12 10 8 7 3 3 5 4 7 7 6 5 3 3 3 4 4 3 5 5 4 2 1 5 7 10 10 5 6 20 29 34 30 27 30 32 32 33 34 34 35 37 38
32 32 32 32 31 30 29 29 30 28 23 19 17 13 11 10 10 11 10 10 9 3 3 6 12 4 5 6 8 9 7 7 8 10 13 16 20 22 24 21 19 19 14 7 6 11 11 5 5 6 5 7 7 9 9 4 6 6 6 4 4 4 5 5 5 5 4 4 5 5 10 12 6 7 14 23 31 29 26 27 27 28 30 32 33 35 37 39
33 32 33 33 32 32 29 29 30 23 19 20 17 12 9 11 7 6 12 18 18 16 16 16 18 19 19 15 11 9 9 9 10 11 12 14 17 21 24 20 14 14 10 6 4 10 13 6 6 9 6 8 8 8 8 5 5 6 4 3 4 5 7 5 5 7 3 3 7 5 8 11 7 7 10 20 25 21 20 21 23 27 29 32 34 35 38 41
33 32 34 34 33 33 29 30 28 17 19 21 15 11 11 12 6 7 19 24 23 22 26 29 27 31 34 29 23 18 12 10 12 14 11 13 18 18 21 19 10 7 7 8 6 7 11 9 9 9 7 8 8 7 8 7 6 6 5 5 5 7 8 4 4 7 4 2 6 6 6 9 7 7 8 14 17 17 22 22 24 29 30 33 35 37 39 40
32 32 35 34 34 34 29 31 23 13 20 16 8 14 14 14 11 9 13 17 28 29 28 30 30 36 40 35 33 28 17 11 15 19 14 14 19 16 17 16 9 6 6 7 6 4 7 9 8 10 7 7 7 7 9 8 8 6 5 5 6 6 6 4 4 5 3 3 7 7 7 9 7 7 10 13 16 20 28 31 32 36 34 34 36 38 39 36
32 32 34 34 35 34 30 30 17 9 20 11 4 14 15 17 16 13 10 11 25 30 27 29 31 37 39 36 34 29 20 14 17 23 21 18 20 20 18 13 10 8 7 8 9 7 6 7 8 11 9 9 7 6 9 7 6 5 5 5 7 5 2 3 4 4 2 4 5 4 4 6 4 4 9 17 22 20 23 28 29 32 34 38 41 42 41 38
31 31 33 34 35 33 31 28 13 10 19 8 3 12 15 18 17 16 12 8 13 18 21 26 26 30 33 29 25 26 26 20 17 22 26 25 22 19 16 14 11 9 9 12 13 9 7 6 8 13 11 11 8 6 8 6 5 5 6 8 8 5 3 4 3 5 5 3 3 1 3 6 2 6 7 13 19 16 19 22 22 26 31 34 36 36 39 40
31 30 31 33 34 34 31 24 14 16 18 4 2 11 15 17 16 15 10 5 8 9 11 12 15 20 21 17 16 21 22 19 25 29 26 30 29 16 11 14 11 9 13 13 10 9 9 6 8 12 10 11 11 8 8 7 5 6 9 11 10 5 4 4 1 5 5 5 5 2 2 6 3 6 7 6 10 13 16 19 22 27 29 30 31 32 36 38
31 31 31 31 33 35 31 23 19 23 16 1 4 12 14 14 13 11 5 1 5 5 2 3 7 6 6 12 16 16 8 11 27 33 26 28 33 20 9 9 8 10 12 9 4 5 6 6 8 9 9 11 11 9 8 9 6 7 7 9 9 6 5 5 2 0 2 5 5 2 3 5 5 5 7 6 9 14 14 14 20 27 28 30 33 34 36 38
31 32 31 30 32 34 31 26 22 22 16 8 10 12 13 12 9 6 2 2 5 4 3 2 4 2 3 13 23 17 3 4 11 24 30 29 31 24 12 8 7 8 8 5 3 3 6 10 8 9 10 9 10 9 8 11 8 6 5 9 8 7 7 6 4 4 4 4 5 3 4 5 6 6 8 8 10 12 13 13 16 22 28 32 35 35 37 40
31 32 31 30 31 30 29 26 20 19 19 17 15 12 12 10 6 1 2 2 4 2 3 1 3 3 3 13 27 17 2 2 4 14 31 31 28 22 11 10 10 9 10 9 7 4 8 12 12 12 10 7 8 7 9 12 8 4 6 8 7 7 6 5 5 5 3 1 7 6 6 5 6 6 4 7 10 10 14 17 15 19 29 33 35 38 39 41
31 32 33 32 30 27 24 21 18 18 21 19 14 12 11 8 3 1 3 2 4 1 2 3 4 2 5 12 21 14 5 2 3 7 25 29 28 19 8 12 12 8 10 12 10 4 6 14 18 13 9 8 7 7 11 13 8 4 5 2 1 2 2 3 4 3 1 2 10 8 5 4 7 5 2 4 8 11 13 15 15 20 29 33 36 38 40 41
31 31 33 33 31 27 20 16 17 20 21 20 14 10 8 3 2 3 2 4 3 2 3 3 3 3 4 7 7 11 7 5 5 8 20 21 23 16 7 12 11 5 6 9 9 5 2 11 16 10 8 11 9 7 10 13 9 5 4 3 2 2 3 3 1 2 1 7 10 9 7 5 6 4 6 5 7 11 12 11 13 18 25 31 35 37 40 42
32 32 33 33 29 22 17 15 16 20 20 19 14 8 3 0 2 3 5 3 3 3 5 4 3 5 1 2 3 5 5 5 2 8 11 10 12 10 6 9 6 4 4 5 8 7 4 3 6 6 12 13 7 6 8 9 9 6 4 4 1 4 3 1 2 3 5 9 5 7 8 7 8 5 6 8 9 14 14 13 15 17 24 33 36 38 42 44
33 32 32 32 24 14 14 18 18 19 19 15 12 6 1 1 1 4 5 4 3 2 3 2 2 5 3 3 3 5 4 3 3 6 6 6 8 8 7 8 7 5 6 7 5 5 6 5 3 4 12 14 8 5 5 4 7 6 4 6 4 2 1 2 2 2 7 7 2 5 7 5 9 5 6 10 11 12 14 15 19 21 27 36 38 40 42 43
33 34 33 28 17 10 14 20 19 19 18 11 8 3 3 2 4 6 5 3 1 2 3 2 5 6 4 3 3 4 3 3 4 5 6 6 7 9 7 6 9 7 4 6 5 3 4 5 5 4 6 12 12 7 5 3 5 8 6 6 6 4 3 5 5 3 4 4 3 4 5 4 7 4 8 13 12 15 19 23 28 29 33 39 43 45 44 44
32 34 32 20 14 15 17 20 19 20 17 9 4 1 3 5 4 2 4 3 1 3 3 4 6 6 3 2 3 3 0 2 1 3 6 5 5 8 5 3 8 6 4 4 5 6 6 5 8 10 6 10 13 10 8 7 5 7 6 6 6 5 6 5 4 4 4 3 3 2 4 5 5 4 9 13 15 20 26 30 33 34 37 40 43 44 42 43
31 33 27 14 15 20 19 21 21 19 16 8 2 1 5 6 2 1 2 3 2 4 6 7 4 3 3 2 3 5 2 2 5 2 4 6 5 7 6 5 7 6 5 5 3 4 9 8 6 10 8 12 13 9 8 9 5 5 5 5 6 6 5 3 4 6 3 2 2 2 3 6 5 5 6 7 11 16 21 26 28 30 35 36 34 34 36 41
31 33 24 12 18 24 20 22 21 18 15 6 1 3 5 3 1 1 2 3 2 5 8 7 2 1 4 3 3 7 5 3 6 4 1 4 4 1 3 4 5 7 6 5 4 3 6 7 2 4 6 11 14 10 10 10 5 3 5 7 6 5 6 4 4 2 1 2 4 3 4 6 4 5 6 6 8 9 13 17 19 25 32 31 29 30 34 40
33 35 24 14 21 25 20 20 20 17 12 1 4 4 3 1 1 1 3 5 4 5 4 3 2 1 2 2 3 7 7 4 5 4 1 2 3 5 4 4 4 2 2 3 4 4 4 5 3 7 8 11 13 14 10 11 10 6 6 7 3 5 4 4 2 2 2 5 5 2 5 5 3 6 5 5 8 9 11 12 14 21 26 26 28 31 34 39
34 33 22 16 24 26 20 19 18 14 5 2 4 5 1 2 3 3 5 6 4 3 1 0 2 1 3 2 3 6 6 4 5 4 2 1 2 6 5 4 6 6 8 8 2 3 3 4 5 8 12 7 7 10 6 7 10 6 5 7 5 2 4 3 2 4 4 4 4 4 5 5 6 6 3 5 9 10 11 11 12 15 18 22 28 32 34 38
33 27 16 17 24 25 21 17 13 6 2 2 4 4 2 3 6 10 11 9 4 2 1 3 2 2 2 2 2 4 4 3 4 3 2 2 0 4 8 5 6 10 12 7 1 2 2 3 5 6 8 6 5 6 6 7 7 3 3 5 4 3 4 4 4 4 4 4 3 3 5 5 7 7 6 8 10 11 11 10 11 14 19 25 31 34 35 37
29 18 12 19 24 23 19 10 4 1 3 1 3 2 4 4 7 14 17 12 3 2 2 2 2 3 2 3 3 3 2 2 4 2 1 3 1 2 9 8 6 12 14 6 1 1 1 4 5 4 2 5 4 5 9 10 8 5 4 5 4 2 2 3 2 3 4 4 3 3 5 5 4 6 9 11 11 11 12 12 11 14 21 29 34 37 38 38
23 9 10 21 22 19 15 9 6 4 0 2 2 3 8 7 7 12 16 14 5 4 4 3 3 3 2 3 3 2 3 2 3 2 0 4 4 2 8 11 7 10 9 4 3 3 1 2 3 2 2 3 4 8 13 15 12 10 8 8 8 4 4 3 4 3 3 5 5 4 6 8 4 5 8 10 10 10 12 12 11 13 22 29 33 38 40 39
16 6 12 21 19 18 14 7 5 5 1 4 7 7 10 9 7 8 11 13 8 3 4 3 3 2 1 2 1 2 3 1 2 2 1 4 4 2 10 17 13 10 6 2 2 2 1 1 2 3 3 4 6 8 10 13 13 12 10 9 9 6 6 6 7 4 3 3 1 3 5 9 6 7 9 9 10 10 12 12 10 15 25 30 32 37 39 38
12 13 17 20 18 17 11 4 5 6 2 7 10 9 10 9 7 8 8 8 7 3 3 3 1 3 2 1 2 2 2 2 2 3 3 4 3 4 14 22 18 10 6 3 3 5 4 1 3 3 3 3 5 6 5 4 6 8 8 7 8 8 9 8 6 4 4 4 3 2 7 8 5 5 8 8 9 9 10 13 13 16 23 27 30 34 35 37
16 20 17 18 17 14 9 4 5 5 5 10 10 9 10 10 9 10 8 5 6 4 2 3 2 2 2 2 2 3 3 2 3 4 4 2 1 7 18 23 16 8 6 6 5 5 4 1 1 0 2 4 4 5 5 3 2 4 5 7 9 11 11 7 3 4 3 7 8 6 8 7 5 4 4 6 7 6 9 14 15 16 20 21 24 28 32 35
16 13 11 18 19 13 10 7 6 5 6 9 9 7 8 8 10 14 12 7 7 6 3 4 4 3 3 4 3 3 5 3 2 3 4 3 1 5 15 20 13 8 8 12 12 5 2 1 1 2 5 7 4 5 5 2 3 3 3 8 12 13 14 10 4 4 6 7 9 7 7 6 6 5 5 7 7 7 10 12 12 15 20 20 20 23 27 30
11 5 6 16 18 11 9 10 10 7 6 7 7 5 6 7 8 13 13 8 11 13 6 3 6 6 5 6 4 3 5 4 3 2 2 4 2 3 12 15 10 10 11 15 17 8 1 1 0 2 4 4 2 4 4 2 4 4 4 6 11 13 15 12 8 8 6 5 7 8 7 5 6 5 6 7 7 8 10 9 9 15 20 21 21 22 23 25
5 3 4 9 10 7 8 10 11 8 6 7 4 3 6 8 6 9 9 7 12 15 7 2 8 8 5 7 4 2 4 4 2 2 3 4 3 4 10 9 6 12 12 11 14 7 2 3 3 1 2 2 3 9 10 6 4 6 8 8 10 12 15 16 14 10 8 6 11 11 8 7 7 7 8 9 8 8 8 8 11 15 17 18 20 21 21 23
2 4 7 7 4 3 5 9 11 9 9 8 3 3 7 8 6 7 6 6 10 11 5 3 9 10 7 7 3 1 3 3 1 3 3 4 4 6 8 5 3 12 12 7 8 5 3 2 3 4 7 7 6 10 12 8 5 7 10 12 12 12 16 19 17 11 10 10 14 10 10 10 8 7 8 9 8 8 10 12 13 14 14 16 18 20 22 24
3 5 8 7 4 5 8 12 12 9 8 8 4 3 7 8 8 7 4 4 7 7 5 4 8 11 9 6 3 1 2 2 2 3 2 4 5 4 4 3 3 11 12 6 5 3 1 2 3 4 7 9 8 9 9 7 6 7 10 12 13 15 17 18 16 13 12 13 12 7 10 11 9 8 9 12 13 10 8 9 11 12 13 16 19 20 23 24
5 5 7 7 7 10 12 10 8 6 6 6 3 3 6 7 8 9 6 4 5 4 6 6 8 11 9 6 4 2 3 2 2 2 1 3 4 2 1 2 2 7 8 4 4 4 1 2 4 4 5 7 9 7 7 8 9 10 11 11 12 14 16 16 13 11 11 11 10 9 9 9 7 6 7 13 16 11 7 8 13 16 17 17 19 21 23 23
9 8 9 8 6 6 7 5 4 4 4 3 2 3 6 6 8 10 10 7 6 3 4 8 10 8 6 6 5 5 5 5 3 5 6 5 5 5 3 3 3 5 5 2 3 3 1 1 2 4 3 5 6 6 10 13 13 12 13 13 11 11 11 11 9 9 10 10 10 12 11 8 7 6 7 11 13 10 8 9 15 20 20 19 20 21 22 21
12 10 10 7 4 4 4 4 3 3 3 2 4 6 6 7 10 10 8 5 4 6 9 10 9 7 4 4 5 5 9 12 12 14 15 14 13 12 12 11 8 5 2 1 2 2 1 1 1 2 1 5 7 8 10 11 10 9 9 8 8 10 10 8 8 9 12 12 11 12 11 8 8 8 8 10 10 9 10 13 18 22 21 20 23 23 22 22
Wind_Direction
339 337 332 327 325 321 318 317 313 311 310 308 308 307 306 304 303 303 302 300 298 296 296 297 298 297 296 295 294 295 292 288 287 278 271 275 288 272 263 259 254 245 225 211 210 191 174 174 178 178 174 171 182 186 186 191 184 183 183 240 233 250 235 207 206 213 243 158 154 168 165 147 147 165 161 158 154 148 156 164 172 180 243 191 179 171 167 164
340 338 335 332 329 325 322 318 314 312 309 308 306 304 303 302 301 300 300 299 297 295 294 295 295 296 296 296 297 299 297 295 291 279 275 286 284 269 257 250 243 236 221 206 206 195 181 176 174 173 170 171 182 186 191 196 191 189 165 225 227 232 220 219 230 272 331 203 169 174 171 161 162 163 161 156 141 149 150 145 163 163 152 167 171 169 168 167
340 339 336 334 331 328 324 320 317 314 311 309 305 303 301 298 298 297 297 297 296 294 291 293 294 295 294 296 299 301 304 305 296 286 280 258 244 248 243 237 227 219 213 204 205 202 193 179 172 170 166 171 180 180 190 194 196 206 197 226 240 237 245 273 268 282 307 194 167 170 173 167 163 162 161 153 146 163 169 157 158 156 154 160 167 169 169 170
338 336 335 333 330 327 324 321 319 316 313 310 306 304 300 298 296 293 294 293 293 293 289 290 291 292 293 295 299 302 312 312 297 281 199 194 227 246 239 229 215 207 200 197 199 200 196 181 173 169 164 173 187 184 195 195 188 192 201 222 240 236 248 275 274 300 305 178 169 160 162 164 163 167 162 147 141 190 203 185 177 174 168 164 166 170 171 172
336 334 334 332 330 327 324 322 319 317 314 310 306 303 300 298 295 292 291 289 290 290 288 289 288 289 290 291 296 299 317 329 291 176 158 243 268 282 244 225 211 201 190 188 182 177 187 180 171 169 169 176 185 195 217 207 198 195 217 227 246 272 277 272 276 337 337 163 164 153 162 171 163 175 173 158 158 205 206 197 189 183 177 172 171 172 172 174
334 333 333 332 330 327 324 322 320 318 314 310 307 303 301 297 295 292 288 286 286 286 286 286 287 286 286 288 293 291 289 280 217 167 302 291 268 292 245 217 205 194 187 188 180 172 179 174 168 172 178 185 193 202 216 206 208 232 240 227 240 254 259 267 269 320 53 149 161 174 180 170 164 189 185 178 188 204 206 197 189 186 183 177 174 173 174 178
334 333 333 331 329 327 325 323 320 318 315 311 307 304 302 299 296 293 287 285 281 282 283 282 286 284 284 286 285 282 251 250 244 234 292 276 249 288 238 207 196 186 182 184 180 174 177 172 172 177 175 191 211 215 225 209 210 229 255 235 243 250 254 268 271 266 227 182 185 184 174 170 181 195 186 196 206 218 217 195 188 183 179 176 173 175 178 180
335 334 333 332 329 327 324 323 320 319 316 312 308 304 302 299 297 294 289 284 278 278 279 279 284 280 282 281 279 282 253 256 274 295 282 254 232 272 218 190 182 180 178 182 183 178 177 176 180 181 175 203 196 200 217 223 224 230 251 257 261 263 265 274 277 267 230 216 207 185 173 189 196 184 182 206 211 234 217 187 183 177 174 175 176 178 180 181
337 335 334 333 330 328 325 323 321 318 315 311 308 305 302 299 296 294 288 283 277 273 273 275 279 277 279 274 273 277 261 267 282 279 268 223 214 218 203 183 175 177 177 183 189 184 179 179 187 184 176 219 215 224 200 200 231 226 244 258 264 265 269 275 278 274 245 221 212 188 189 203 198 181 193 209 207 220 197 179 178 176 174 176 177 179 181 183
340 337 337 334 332 330 327 325 322 319 315 310 308 306 303 300 296 292 286 282 276 271 268 268 272 273 273 265 247 249 266 273 265 267 266 200 199 180 192 186 177 179 180 184 190 191 189 190 194 190 198 238 225 247 215 207 255 251 256 260 262 264 270 271 269 273 265 229 208 194 205 208 194 187 213 207 198 196 180 173 175 176 177 178 179 181 183 186
343 341 339 337 335 332 330 328 325 321 315 310 308 307 305 301 295 290 284 280 275 271 265 263 266 267 268 255 228 233 257 258 249 262 202 181 191 192 193 188 182 183 186 189 193 201 204 205 196 189 212 245 220 249 241 242 263 273 280 279 274 273 276 271 265 272 273 238 211 198 201 199 187 209 217 189 186 187 176 171 175 177 179 180 181 182 185 188
347 344 341 339 337 335 333 332 329 324 317 312 310 309 308 302 295 291 287 283 276 270 262 259 260 260 263 252 241 242 248 253 253 229 162 154 174 196 199 197 196 195 195 193 196 205 206 207 195 185 198 221 204 265 263 252 268 287 293 287 289 302 292 275 267 267 252 227 208 186 167 187 196 222 207 181 179 179 175 172 175 179 180 182 184 184 187 190
348 345 343 340 338 337 335 334 333 327 320 316 314 313 309 303 300 296 291 287 278 267 260 254 254 254 249 247 250 251 246 247 249 220 189 170 175 188 201 207 210 210 212 208 203 204 205 208 202 200 206 196 166 201 269 294 329 315 298 251 291 331 304 278 273 268 252 208 180 161 121 225 213 216 186 179 176 170 171 173 176 179 181 183 186 188 189 191
347 345 343 340 338 336 335 335 334 329 324 321 320 317 311 307 306 301 296 292 280 265 254 247 248 245 235 246 259 264 253 245 243 231 217 223 219 200 198 204 213 216 217 220 217 211 212 214 209 210 217 220 233 272 300 324 344 326 315 281 295 294 281 295 323 305 335 192 167 160 236 232 218 208 179 179 177 171 170 174 178 180 182 185 187 191 193 193
346 344 342 340 337 335 334 335 334 330 327 327 326 320 315 315 311 307 303 295 282 265 249 239 236 228 235 258 266 267 257 242 239 234 226 232 229 208 195 198 208 214 216 220 221 218 218 215 210 212 225 231 244 274 312 328 347 19 312 299 306 210 274 306 298 198 241 206 170 168 250 249 231 197 179 179 177 175 173 176 181 181 184 187 188 192 196 197
345 342 340 339 337 336 335 335 334 331 330 332 331 323 321 321 316 311 309 307 306 276 236 227 224 215 237 276 271 263 253 239 233 230 226 230 226 211 200 198 202 208 214 217 220 221 220 214 210 216 225 228 225 211 286 299 302 7 170 250 270 239 279 309 307 216 214 208 176 190 225 257 250 184 176 178 179 178 175 178 183 184 185 189 190 193 196 198
343 341 340 338 337 336 336 337 336 332 332 336 334 327 324 320 308 298 302 333 351 349 193 196 197 216 246 259 264 259 249 236 226 220 220 223 222 220 215 206 200 203 207 211 218 217 209 197 198 213 216 206 158 151 201 243 242 291 167 229 250 227 226 271 305 296 209 176 195 218 228 250 276 174 173 178 181 180 178 181 185 187 187 190 193 194 196 198
342 340 339 337 336 336 338 339 338 336 335 337 339 333 321 310 294 284 280 312 337 3 189 180 155 203 256 242 243 240 220 212 210 209 211 211 216 222 219 210 205 202 193 194 210 201 193 191 176 183 201 193 177 169 201 220 195 193 198 227 262 237 221 238 266 304 350 241 207 217 233 250 283 175 176 180 183 182 184 186 186 188 188 190 194 195 197 200
341 339 338 337 336 336 339 341 341 341 338 339 347 337 318 311 296 277 271 292 301 262 249 195 173 202 269 242 240 235 227 220 215 212 206 203 207 211 211 211 209 196 173 158 200 186 178 176 176 197 209 194 197 197 203 177 145 178 183 189 242 247 246 237 250 278 324 311 259 224 230 241 233 188 187 184 184 186 188 187 186 189 190 192 196 199 200 202
340 338 336 335 335 336 339 343 343 347 348 348 352 349 347 349 328 291 300 291 272 258 268 253 227 244 261 263 265 260 251 241 233 221 206 205 201 195 198 200 196 188 166 145 186 177 169 183 212 206 203 193 201 206 197 170 176 213 216 228 243 252 262 252 269 282 279 283 271 236 229 243 224 198 199 186 184 189 189 186 187 191 192 194 197 202 203 206
339 337 335 334 334 334 339 345 344 352 358 354 1 25 36 19 5 320 319 302 281 271 270 265 254 255 259 259 261 267 275 272 247 222 205 206 198 184 188 186 170 186 186 153 148 157 171 203 220 199 188 184 191 190 180 184 203 225 243 261 262 251 264 258 250 269 248 231 277 270 252 254 232 206 200 185 185 193 191 186 190 194 195 197 199 203 206 208
338 336 334 333 332 333 338 344 346 358 357 351 16 41 39 16 360 324 316 298 291 290 278 270 263 258 258 256 255 258 265 272 251 227 203 194 196 185 177 179 177 185 177 155 147 153 194 224 209 184 176 169 178 175 171 185 196 209 226 243 254 249 275 280 245 260 226 205 270 279 262 262 247 193 183 190 197 202 197 193 193 194 194 197 201 204 206 207
337 335 333 332 331 331 335 344 348 356 352 351 38 27 14 357 351 331 310 275 288 291 278 268 259 254 254 251 249 244 237 237 243 233 209 189 194 189 172 172 186 177 164 182 189 181 210 236 189 172 171 168 180 177 165 177 194 199 200 218 245 240 262 273 277 306 267 216 257 275 258 278 286 179 187 199 202 206 206 206 204 200 197 199 202 204 204 203
338 335 333 331 330 329 334 343 346 344 348 354 36 7 354 343 342 333 317 267 278 286 274 268 257 251 249 248 243 226 220 221 225 226 211 193 186 182 179 177 172 177 189 196 200 199 224 248 174 163 170 178 190 187 165 175 212 216 206 218 240 235 216 234 279 336 333 296 269 299 323 306 248 187 208 204 199 205 208 210 216 214 210 208 207 207 206 206
341 338 335 332 331 329 332 341 341 339 345 351 306 336 336 334 334 335 326 275 280 279 275 266 245 247 243 235 228 211 210 222 224 221 209 196 187 169 173 181 168 190 201 191 196 214 233 235 160 157 170 179 190 202 184 177 207 236 223 220 229 226 229 245 326 6 346 310 275 229 277 294 273 213 225 200 192 206 206 204 212 215 213 213 213 211 211 211
344 342 338 334 334 331 333 345 341 336 345 347 283 317 319 325 332 330 327 316 294 262 234 222 217 237 216 195 190 179 180 238 234 224 209 200 195 176 156 173 177 200 192 175 192 224 216 182 153 167 179 177 191 212 197 171 195 242 218 196 206 203 216 241 241 357 268 263 267 168 184 274 308 259 231 193 193 209 207 208 213 212 210 211 213 212 211 213
346 344 340 335 337 337 338 347 339 332 338 318 302 314 313 320 330 321 334 4 290 223 146 173 193 151 172 182 169 153 140 239 226 217 205 199 194 184 176 173 179 193 162 138 216 215 164 164 171 184 178 180 200 212 188 167 191 236 164 147 172 182 195 209 189 202 225 255 272 213 182 259 282 251 226 184 195 216 214 219 219 212 211 212 214 214 212 214
346 345 342 335 339 342 339 343 342 332 327 318 313 314 314 317 311 277 79 340 277 175 122 157 113 110 149 172 170 169 267 130 126 213 200 191 187 185 188 186 179 181 160 162 206 193 153 173 188 187 183 195 204 197 175 173 199 221 135 137 160 167 180 171 161 213 230 302 276 244 172 228 267 264 247 172 189 216 217 221 223 215 214 213 213 214 214 216
347 346 344 337 338 340 337 343 350 334 317 315 317 311 313 310 277 115 96 268 263 57 65 123 90 78 124 154 187 215 294 30 30 198 183 183 189 188 195 192 175 167 180 190 204 189 167 191 193 185 192 210 202 184 171 178 206 206 149 137 85 116 120 127 162 215 275 236 257 251 168 206 267 264 230 175 194 214 217 219 222 220 219 216 214 214 215 217
349 347 343 340 340 338 333 338 347 335 317 315 319 314 313 296 147 103 179 240 272 354 25 92 67 347 110 129 220 253 271 308 5 145 168 180 189 188 177 176 164 138 189 215 214 216 232 197 193 186 200 209 200 188 179 181 186 157 156 221 288 339 32 53 125 104 279 257 249 238 180 185 265 239 178 189 198 203 211 217 220 223 224 222 219 215 215 217
350 346 343 344 345 341 337 332 335 334 320 314 319 315 305 254 107 155 211 258 325 338 15 33 21 4 40 162 262 256 249 282 16 138 168 178 181 181 147 155 160 127 171 225 221 232 276 189 185 198 203 197 181 194 198 179 173 151 135 155 209 310 352 344 359 83 233 251 236 209 171 169 242 235 181 208 210 199 203 209 212 217 221 222 221 218 216 217
348 344 342 345 343 343 346 335 327 326 320 315 314 302 194 141 219 209 237 327 342 335 16 338 331 358 315 275 247 215 216 242 191 156 177 181 178 184 172 170 173 157 194 215 195 213 234 220 218 220 205 190 164 190 206 156 169 176 139 127 153 261 301 224 230 185 233 250 214 179 155 183 241 237 191 214 219 209 207 209 210 212 217 218 218 218 217 216
347 343 343 349 354 358 350 339 330 328 329 323 304 309 104 170 229 212 238 294 359 347 351 294 305 315 278 287 290 233 210 217 200 176 182 182 179 192 195 184 172 162 182 188 158 162 228 243 226 214 210 188 171 174 191 172 176 179 163 149 164 181 192 215 230 240 248 262 251 174 149 234 272 263 206 207 211 213 213 215 216 216 218 218 217 217 216 214
346 343 346 359 17 8 350 343 340 338 338 328 299 359 135 213 245 214 236 263 10 4 344 319 310 305 265 265 331 360 349 270 276 169 173 161 173 196 201 195 188 170 113 146 166 178 201 237 215 205 196 173 181 192 178 154 164 183 157 139 168 180 180 197 203 211 235 266 274 175 154 221 251 251 219 203 204 209 211 217 220 222 224 223 221 218 214 212
343 343 349 7 11 360 349 342 341 339 335 325 306 200 195 218 260 44 272 298 2 3 332 315 303 314 318 292 349 17 27 342 356 352 178 160 170 194 194 200 204 177 136 172 192 176 205 237 227 206 187 166 183 197 154 133 162 192 128 132 204 190 153 197 200 180 186 320 284 208 204 228 227 259 260 223 212 207 208 217 219 224 229 227 225 220 213 213
339 343 353 9 1 357 349 338 335 330 326 327 172 220 226 233 232 151 348 353 1 340 325 319 333 31 333 321 354 359 354 357 2 1 176 156 135 141 210 209 209 195 177 191 203 156 196 235 222 152 183 190 185 174 160 164 172 165 154 186 205 141 136 219 246 179 106 281 265 220 250 288 299 280 264 217 217 215 208 215 217 223 229 228 227 222 214 213
339 341 349 2 355 353 345 335 329 320 318 304 196 243 251 290 285 109 12 5 336 325 344 350 346 22 355 340 347 347 343 343 0 11 322 185 72 7 312 312 340 265 292 312 237 182 169 242 235 151 194 224 188 166 177 178 152 134 191 194 118 81 143 188 245 276 230 250 276 239 235 267 272 272 271 182 201 225 216 212 216 222 227 228 229 225 218 217
339 337 345 360 351 345 342 333 321 309 302 169 236 269 269 306 336 9 0 350 320 305 45 56 282 31 38 355 332 345 350 352 357 357 334 240 45 15 351 320 342 348 337 336 286 210 185 247 260 185 191 212 164 159 189 194 176 169 182 170 130 131 189 164 189 224 216 237 273 272 253 239 213 233 264 190 207 225 223 215 215 220 223 226 229 228 223 220
339 336 346 360 348 341 340 328 306 282 181 159 249 261 286 304 326 335 338 337 308 280 309 223 243 18 12 348 345 340 350 357 335 325 15 23 32 31 20 342 313 330 329 327 192 220 213 202 262 234 188 159 135 165 191 209 222 223 128 157 158 166 179 172 181 182 189 221 244 290 283 247 220 206 186 206 221 221 222 221 215 218 219 220 224 227 226 220
342 337 343 356 348 342 347 346 323 146 143 232 240 264 327 320 316 329 341 349 317 268 316 270 327 353 313 339 348 320 343 355 333 314 41 23 68 63 16 1 320 320 322 320 174 267 256 195 242 284 153 147 163 198 191 192 209 207 185 192 189 167 156 169 202 172 169 197 196 247 265 251 234 198 182 201 220 218 218 218 218 220 220 219 220 224 226 222
346 332 332 353 352 350 11 50 44 15 31 314 324 324 326 318 314 328 346 360 347 263 275 281 299 297 271 330 333 331 1 335 312 317 335 23 42 46 358 352 323 311 321 350 25 8 6 205 227 236 183 182 206 208 197 193 193 190 197 203 193 181 133 151 242 240 174 194 182 187 253 261 246 198 190 201 212 218 217 214 219 227 225 224 223 224 227 225
348 313 333 358 1 359 20 65 27 2 32 349 337 320 316 310 313 330 344 357 359 305 284 282 282 313 327 317 318 7 12 316 292 326 73 53 54 43 351 349 339 328 338 16 9 352 6 225 233 229 218 215 227 223 212 208 200 193 200 199 188 178 153 177 228 225 187 223 158 135 252 266 247 196 193 202 208 217 220 212 214 226 227 227 227 228 229 229
335 309 339 11 13 8 23 58 14 11 7 344 335 326 328 323 331 351 349 350 353 338 327 331 2 37 29 330 351 8 4 15 14 26 71 75 71 35 2 356 354 353 4 22 345 334 339 246 219 274 304 279 273 288 299 271 200 200 216 200 183 189 189 202 212 175 180 216 172 194 251 267 272 217 204 216 217 222 236 228 220 229 231 227 227 231 232 233
324 311 333 14 23 31 41 36 12 4 343 346 340 336 348 346 348 351 337 335 351 344 326 328 354 29 356 327 11 17 3 30 53 46 55 71 88 35 10 359 360 9 16 12 350 329 327 301 161 94 257 240 267 289 298 308 202 209 226 206 200 198 194 205 187 138 205 209 177 201 239 244 279 279 247 252 245 244 255 241 227 236 245 237 230 233 235 236
332 317 327 356 9 39 56 43 32 3 343 346 335 330 349 346 345 343 330 336 9 0 316 303 326 5 14 4 30 32 19 42 56 29 37 20 42 46 9 353 354 7 3 3 358 339 258 264 106 143 211 215 218 225 222 260 272 257 232 209 209 202 195 200 191 186 224 209 180 203 237 251 291 289 250 254 254 253 260 255 242 243 251 252 244 240 240 238
338 322 320 342 352 23 47 40 34 10 343 346 332 324 344 335 339 346 340 353 10 356 330 315 349 11 25 16 26 36 18 24 17 357 21 8 359 29 356 343 346 356 357 6 1 349 159 19 73 164 218 222 245 257 243 306 294 285 295 236 214 207 203 203 211 211 200 183 206 219 210 230 268 249 225 236 235 238 255 268 259 241 243 249 248 246 244 241
343 322 329 339 340 354 8 12 18 4 331 338 325 283 327 331 339 357 355 356 355 346 330 42 36 30 18 4 8 45 12 359 347 4 28 11 348 346 340 328 343 357 1 13 2 357 87 355 323 66 311 276 306 295 286 294 267 258 283 266 232 215 205 208 220 208 152 170 231 229 188 200 246 240 226 229 224 230 244 251 251 245 248 258 261 258 253 248
338 301 320 332 328 348 350 340 342 335 321 328 315 272 324 337 344 355 354 337 341 347 347 26 30 23 7 355 350 344 3 358 359 27 34 7 348 348 339 318 4 8 8 17 8 21 122 265 301 10 339 307 298 289 281 282 256 240 256 258 251 235 215 215 220 199 163 203 237 226 181 193 230 236 234 232 212 210 226 236 245 253 262 272 273 267 259 252
294 283 306 324 315 301 302 304 313 317 318 323 317 309 333 341 336 336 347 332 329 352 11 358 0 0 349 343 351 352 359 9 1 2 17 358 350 353 334 307 1 13 10 6 356 8 125 272 320 352 332 311 298 282 276 284 279 267 263 255 254 249 233 227 225 206 199 223 242 223 186 197 220 222 227 238 232 227 239 251 253 250 255 265 267 263 259 256
301 283 300 312 299 288 287 289 300 306 314 322 313 316 339 340 331 329 334 321 295 326 9 355 343 346 338 335 344 306 290 313 313 299 329 360 348 330 307 290 330 360 2 350 331 347 17 313 333 1 342 309 298 296 302 304 297 286 274 260 255 255 248 242 232 218 216 227 238 234 212 214 240 242 240 252 258 268 277 262 252 247 248 258 263 262 260 260
306 296 299 302 292 293 289 281 293 296 303 320 311 329 342 333 327 328 320 295 253 253 357 342 330 332 328 321 311 282 297 319 291 282 294 289 273 269 280 297 323 344 349 321 307 337 13 286 342 25 4 294 295 320 322 317 311 291 269 261 255 248 249 249 232 214 214 215 223 235 232 229 244 247 253 262 267 271 261 249 252 252 248 249 256 259 254 254
314 308 308 305 291 298 292 275 282 286 288 327 331 330 327 311 314 321 313 294 284 309 328 326 317 318 312 291 291 306 325 322 305 298 296 280 264 260 258 260 265 265 258 290 313 287 221 216 334 21 7 287 291 310 320 322 313 279 260 261 254 237 234 246 245 226 214 207 212 227 227 219 211 205 221 246 255 254 248 242 244 249 248 242 245 251 251 255